TimeEST,TemperatureF,Dew PointF,Humidity,Sea Level PressureIn,VisibilityMPH,Wind Direction,Wind SpeedMPH,Gust SpeedMPH,PrecipitationIn,Events,Conditions,WindDirDegrees,DateUTC
12:53 AM,32.0,24.1,73,29.52,10.0,WNW,9.2,-,N/A,,Overcast,300,2013-03-04 05:53:00
1:53 AM,30.9,23.0,72,29.51,10.0,WNW,8.1,-,N/A,,Overcast,300,2013-03-04 06:53:00
2:53 AM,30.9,23.0,72,29.50,10.0,WNW,10.4,-,N/A,,Overcast,300,2013-03-04 07:53:00
3:53 AM,30.2,23.0,75,29.50,10.0,NW,9.2,-,N/A,,Overcast,310,2013-03-04 08:53:00
4:53 AM,30.9,21.9,69,29.51,10.0,Variable,6.9,-,N/A,,Overcast,0,2013-03-04 09:53:00
5:53 AM,30.0,23.0,75,29.51,10.0,WNW,5.8,-,0.00,,Overcast,300,2013-03-04 10:53:00
6:53 AM,30.2,23.0,75,29.50,10.0,WNW,6.9,-,N/A,,Overcast,300,2013-03-04 11:53:00
7:53 AM,30.0,23.0,75,29.52,6.0,NW,9.2,-,0.00,Snow,Light Snow,310,2013-03-04 12:53:00
8:53 AM,30.9,21.0,67,29.51,9.0,WNW,10.4,-,0.00,,Overcast,300,2013-03-04 13:53:00
9:40 AM,30.2,21.2,69,29.50,2.0,WNW,11.5,19.6,0.00,Snow,Light Snow,300,2013-03-04 14:40:00
9:50 AM,30.2,23.0,75,29.50,1.5,WNW,8.1,17.3,0.00,Snow,Light Snow,300,2013-03-04 14:50:00
9:53 AM,30.0,23.0,75,29.52,1.2,WNW,9.2,-,0.00,Snow,Light Snow,300,2013-03-04 14:53:00
10:38 AM,30.2,24.8,80,29.50,3.0,West,10.4,-,0.00,Snow,Light Snow,280,2013-03-04 15:38:00
10:50 AM,30.2,24.8,80,29.49,7.0,WNW,11.5,-,0.00,Snow,Light Snow,290,2013-03-04 15:50:00
10:53 AM,30.0,24.1,79,29.50,7.0,WNW,10.4,-,0.00,Snow,Light Snow,290,2013-03-04 15:53:00
11:07 AM,30.2,24.8,80,29.49,2.5,WNW,9.2,-,0.00,Snow,Light Snow,290,2013-03-04 16:07:00
11:13 AM,30.2,24.8,80,29.49,3.0,West,9.2,-,0.00,Snow,Light Snow,280,2013-03-04 16:13:00
11:53 AM,32.0,23.0,69,29.49,10.0,NW,10.4,17.3,0.00,,Overcast,310,2013-03-04 16:53:00
12:18 PM,30.2,24.8,80,29.48,2.5,NW,11.5,17.3,0.00,Snow,Light Snow,320,2013-03-04 17:18:00
12:37 PM,30.2,26.6,86,29.48,1.5,WNW,12.7,20.7,0.00,Snow,Light Snow,300,2013-03-04 17:37:00
12:53 PM,30.9,25.0,79,29.49,1.8,NW,12.7,20.7,0.00,Snow,Light Snow,310,2013-03-04 17:53:00
1:53 PM,30.9,27.0,85,29.49,0.8,NW,9.2,18.4,0.01,Snow,Light Snow,310,2013-03-04 18:53:00
2:26 PM,30.2,26.6,86,29.49,1.2,NW,11.5,20.7,0.00,Snow,Light Snow,310,2013-03-04 19:26:00
2:32 PM,30.2,26.6,86,29.49,2.0,WNW,8.1,18.4,0.00,Snow,Light Snow,300,2013-03-04 19:32:00
2:40 PM,30.2,26.6,86,29.49,9.0,NW,11.5,17.3,0.00,,Overcast,310,2013-03-04 19:40:00
2:53 PM,30.9,26.1,82,29.50,10.0,WNW,10.4,16.1,0.00,,Overcast,300,2013-03-04 19:53:00
3:53 PM,32.0,25.0,75,29.51,10.0,WNW,10.4,-,N/A,,Overcast,300,2013-03-04 20:53:00
4:53 PM,33.1,24.1,70,29.53,4.0,NNW,11.5,19.6,0.00,Snow,Light Snow,330,2013-03-04 21:53:00
5:53 PM,33.1,24.1,70,29.56,9.0,NW,10.4,-,0.00,,Overcast,320,2013-03-04 22:53:00
6:21 PM,33.8,26.6,75,29.56,2.5,NNW,15.0,26.5,0.00,Snow,Light Snow,340,2013-03-04 23:21:00
6:39 PM,32.0,28.4,87,29.57,5.0,NNW,15.0,-,0.00,Snow,Light Snow,330,2013-03-04 23:39:00
6:53 PM,32.0,28.0,85,29.59,2.5,NNW,17.3,23.0,0.00,Snow,Light Snow,330,2013-03-04 23:53:00
7:26 PM,30.2,28.4,93,29.58,3.0,NNW,16.1,-,0.00,Snow,Light Snow,330,2013-03-05 00:26:00
7:39 PM,30.2,28.4,93,29.59,2.5,NNW,17.3,-,0.00,Snow,Light Snow,330,2013-03-05 00:39:00
7:47 PM,30.2,28.4,93,29.59,2.5,NNW,16.1,-,0.00,Snow,Light Snow,340,2013-03-05 00:47:00
7:53 PM,30.9,28.9,92,29.60,2.5,NNW,16.1,23.0,0.00,Snow,Light Snow,340,2013-03-05 00:53:00
8:19 PM,30.2,28.4,93,29.60,3.0,NNW,13.8,21.9,0.00,Snow,Light Snow,340,2013-03-05 01:19:00
8:34 PM,30.2,28.4,93,29.61,2.5,NNW,16.1,25.3,0.00,Snow,Light Snow,330,2013-03-05 01:34:00
8:41 PM,32.0,28.4,87,29.61,3.0,NNW,17.3,23.0,0.00,Snow,Light Snow,330,2013-03-05 01:41:00
8:53 PM,32.0,28.9,88,29.63,3.0,NNW,15.0,-,0.00,Snow,Light Snow,330,2013-03-05 01:53:00
9:14 PM,32.0,28.4,87,29.62,2.5,NNW,13.8,-,N/A,Snow,Light Snow,330,2013-03-05 02:14:00
9:53 PM,30.9,28.9,92,29.65,2.0,NNW,13.8,20.7,0.00,Snow,Light Snow,330,2013-03-05 02:53:00
10:03 PM,30.2,28.4,93,29.64,4.0,NNW,16.1,-,0.00,Snow,Light Snow,330,2013-03-05 03:03:00
10:49 PM,30.2,28.4,93,29.66,5.0,NNW,12.7,-,0.00,Snow,Light Snow,330,2013-03-05 03:49:00
10:53 PM,30.9,28.0,89,29.67,5.0,NNW,15.0,-,0.00,Snow,Light Snow,330,2013-03-05 03:53:00
11:08 PM,30.2,28.4,93,29.66,4.0,NNW,13.8,-,0.00,Snow,Light Snow,340,2013-03-05 04:08:00
11:53 PM,32.0,28.9,88,29.69,4.0,NNW,15.0,20.7,0.00,Snow,Light Snow,330,2013-03-05 04:53:00